TimeCST,TemperatureF,Dew PointF,Humidity,Sea Level PressureIn,VisibilityMPH,Wind Direction,Wind SpeedMPH,Gust SpeedMPH,PrecipitationIn,Events,Conditions,WindDirDegrees,DateUTC
12:53 AM,45.0,42.1,90,29.77,7.0,SE,10.4,-,N/A,,Clear,140,2011-11-06 05:53:00
1:53 AM,48.0,43.0,83,29.75,9.0,SSE,12.7,19.6,N/A,,Clear,160,2011-11-06 06:53:00
1:53 AM,50.0,43.0,77,29.75,10.0,South,13.8,21.9,N/A,,Clear,170,2011-11-06 07:53:00
2:53 AM,50.0,43.0,77,29.74,10.0,South,15.0,-,N/A,,Clear,170,2011-11-06 08:53:00
3:53 AM,51.1,43.0,74,29.71,10.0,South,18.4,28.8,N/A,,Clear,170,2011-11-06 09:53:00
4:53 AM,51.1,44.1,77,29.71,10.0,South,23.0,31.1,N/A,,Clear,180,2011-11-06 10:53:00
5:53 AM,51.1,44.1,77,29.69,10.0,South,18.4,27.6,N/A,,Clear,170,2011-11-06 11:53:00
6:53 AM,52.0,45.0,77,29.70,10.0,South,18.4,27.6,N/A,,Scattered Clouds,180,2011-11-06 12:53:00
7:53 AM,53.1,45.0,74,29.74,10.0,South,20.7,28.8,N/A,,Mostly Cloudy,190,2011-11-06 13:53:00
8:53 AM,55.0,46.0,72,29.76,10.0,SSW,25.3,38.0,N/A,,Mostly Cloudy,210,2011-11-06 14:53:00
9:53 AM,55.9,42.1,60,29.80,10.0,WSW,24.2,34.5,N/A,,Clear,240,2011-11-06 15:53:00
10:53 AM,54.0,39.9,59,29.86,10.0,West,16.1,25.3,N/A,,Clear,270,2011-11-06 16:53:00
11:53 AM,54.0,37.0,53,29.88,10.0,West,17.3,26.5,N/A,,Clear,260,2011-11-06 17:53:00
12:53 PM,54.0,36.0,51,29.90,10.0,WSW,17.3,-,N/A,,Clear,250,2011-11-06 18:53:00
2:53 PM,55.0,33.1,43,29.91,10.0,West,11.5,20.7,N/A,,Clear,270,2011-11-06 20:53:00
3:53 PM,54.0,32.0,43,29.94,10.0,West,12.7,-,N/A,,Clear,260,2011-11-06 21:53:00
4:53 PM,46.0,34.0,63,29.97,10.0,SW,6.9,-,N/A,,Clear,220,2011-11-06 22:53:00
5:53 PM,42.1,33.1,70,30.01,10.0,WSW,6.9,-,N/A,,Clear,250,2011-11-06 23:53:00
6:53 PM,37.0,32.0,82,30.04,10.0,SW,5.8,-,N/A,,Clear,230,2011-11-07 00:53:00
7:53 PM,34.0,30.0,85,30.05,9.0,WSW,5.8,-,N/A,,Clear,240,2011-11-07 01:53:00
9:53 PM,33.1,28.9,85,30.09,9.0,WNW,3.5,-,N/A,,Clear,300,2011-11-07 03:53:00
10:53 PM,33.1,28.9,85,30.10,10.0,Calm,Calm,-,N/A,,Clear,0,2011-11-07 04:53:00